Thompson, Ohio, United States (44086)
Lat: 41.69N, Lon: 81.05W
Wx Zone: OHZ013
Local Info
Past Weather Observations for Monday, April 14, 2014

NOTE: This archive is for the closest National Weather Service station to Thompson. Information may differ from the station used for current weather conditions.

Time Weather Temperature Dewpoint Humidity Pressure Winds Precip Visibility
23:53
Overcast
39°F / 4°C 37°F / 3°C 93% 29.65 in
(1004 mb)
NNW 8.1 mph
(NNW 13 kph)
0.00 in
(0.00 mm)
7SM
22:53
Overcast
43°F / 6°C 39°F / 4°C 87% 29.68 in
(1005 mb)
Variable 5.8 mph
(Variable 9 kph)
0.01 in
(0.25 mm)
8SM
22:25
Overcast
45°F / 7°C 41°F / 5°C 87% 29.68 in
(1005 mb)
N 5.8 mph
(N 9 kph)
0.01 in
(0.25 mm)
9SM
21:53
Overcast
Light Rain
45°F / 7°C 43°F / 6°C 93% 29.71 in
(1006 mb)
N 3.5 mph
(N 6 kph)
0.05 in
(1.27 mm)
7SM
21:50
Overcast
Light Rain
45°F / 7°C 43°F / 6°C 93% 29.71 in
(1006 mb)
NNE 3.5 mph
(NNE 6 kph)
0.05 in
(1.27 mm)
8SM
21:09
Overcast
Light Rain
46°F / 8°C 43°F / 6°C 87% 29.71 in
(1006 mb)
NW 10.4 mph
(NW 17 kph)
0.00 in
(0.00 mm)
5SM
21:05
Overcast
Rain
46°F / 8°C 43°F / 6°C 87% 29.71 in
(1006 mb)
N 8.1 mph
(N 13 kph)
0.00 in
(0.00 mm)
6SM
20:53
Overcast
50°F / 10°C 45°F / 7°C 82% 29.71 in
(1006 mb)
NW 8.1 mph
(NW 13 kph)
- 10SM
20:30
Overcast
50°F / 10°C 46°F / 8°C 88% 29.71 in
(1006 mb)
NW 6.9 mph
(NW 11 kph)
- 10SM
19:53
Overcast
52°F / 11°C 48°F / 9°C 88% 29.71 in
(1006 mb)
NW 5.8 mph
(NW 9 kph)
0.01 in
(0.25 mm)
10SM
19:33
Overcast
52°F / 11°C 48°F / 9°C 88% 29.68 in
(1005 mb)
SSW 5.8 mph
(SSW 9 kph)
0.01 in
(0.25 mm)
10SM
19:14
Overcast
52°F / 11°C 48°F / 9°C 88% 29.68 in
(1005 mb)
SSW 4.6 mph
(SSW 7 kph)
0.01 in
(0.25 mm)
10SM
18:53
Overcast
Light Rain
52°F / 11°C 48°F / 9°C 88% 29.68 in
(1005 mb)
W 6.9 mph
(W 11 kph)
0.02 in
(0.51 mm)
8SM
17:53
Overcast
54°F / 12°C 48°F / 9°C 82% 29.68 in
(1005 mb)
W 9.2 mph
(W 15 kph)
0.11 in
(2.79 mm)
10SM
17:14
Overcast
Light Rain
54°F / 12°C 52°F / 11°C 94% 29.68 in
(1005 mb)
WNW 10.4 mph
(WNW 17 kph)
0.09 in
(2.29 mm)
3SM
17:11
Overcast
Rain
54°F / 12°C 52°F / 11°C 94% 29.68 in
(1005 mb)
W 12.7 mph
(W 20 kph)
0.08 in
(2.03 mm)
2SM
16:53
Overcast
Heavy Rain
57°F / 14°C 55°F / 13°C 94% 29.68 in
(1005 mb)
WNW 10.4 mph
(WNW 17 kph)
0.31 in
(7.87 mm)
1 1/2SM
16:46
Overcast
Heavy Rain
57°F / 14°C 55°F / 13°C 94% 29.68 in
(1005 mb)
NW 8.1 mph
(NW 13 kph)
0.27 in
(6.86 mm)
1 1/4SM
16:37
Overcast
Heavy Rain
57°F / 14°C 55°F / 13°C 94% 29.68 in
(1005 mb)
W 6.9 mph
(W 11 kph)
0.21 in
(5.33 mm)
1 1/4SM
16:32
Overcast
Heavy Rain
57°F / 14°C 55°F / 13°C 94% 29.68 in
(1005 mb)
W 6.9 mph
(W 11 kph)
0.19 in
(4.83 mm)
1SM
16:24
Overcast
Heavy Rain
59°F / 15°C 55°F / 13°C 88% 29.68 in
(1005 mb)
WNW 10.4 mph
(WNW 17 kph)
0.10 in
(2.54 mm)
1 1/4SM
16:20
Overcast
Rain
59°F / 15°C 54°F / 12°C 82% 29.68 in
(1005 mb)
W 9.2 mph
(W 15 kph)
0.07 in
(1.78 mm)
2SM
15:53
Overcast
61°F / 16°C 54°F / 12°C 77% 29.65 in
(1004 mb)
WNW 6.9 mph
(WNW 11 kph)
- 10SM
15:48
Overcast
63°F / 17°C 55°F / 13°C 77% 29.65 in
(1004 mb)
NW 13.8 mph
(NW 22 kph)
- 10SM
14:53
Overcast
64°F / 18°C 57°F / 14°C 78% 29.65 in
(1004 mb)
SW 15 mph
(SW 24 kph)
0.03 in
(0.76 mm)
10SM
14:51
Overcast
64°F / 18°C 57°F / 14°C 78% 29.65 in
(1004 mb)
SW 12.7 mph
(SW 20 kph)
0.03 in
(0.76 mm)
10SM
14:43
Overcast
Light Rain
63°F / 17°C 57°F / 14°C 83% 29.65 in
(1004 mb)
SW 15 mph
(SW 24 kph)
0.03 in
(0.76 mm)
8SM
13:53
Overcast
64°F / 18°C 55°F / 13°C 73% 29.65 in
(1004 mb)
SW 21.9 mph
(SW 35 kph)
0.02 in
(0.51 mm)
10SM
12:53
Overcast
Light Rain
63°F / 17°C 57°F / 14°C 83% 29.65 in
(1004 mb)
SSE 15 mph
(SSE 24 kph)
0.03 in
(0.76 mm)
10SM
11:53
Overcast
Light Rain
64°F / 18°C 55°F / 13°C 73% 29.65 in
(1004 mb)
SW 17.3 mph
(SW 28 kph)
0.02 in
(0.51 mm)
8SM
10:53
Overcast
Light Rain
66°F / 19°C 54°F / 12°C 64% 29.65 in
(1004 mb)
SSW 23 mph
(SSW 37 kph)
0.00 in
(0.00 mm)
10SM
09:53
Mostly Cloudy
72°F / 22°C 48°F / 9°C 44% 29.62 in
(1003 mb)
SW 19.6 mph
(SW 32 kph)
- 10SM
08:53
Partly Cloudy
72°F / 22°C 48°F / 9°C 44% 29.62 in
(1003 mb)
SSE 19.6 mph
(SSE 32 kph)
- 10SM
07:53
Mostly Cloudy
70°F / 21°C 48°F / 9°C 46% 29.62 in
(1003 mb)
S 15 mph
(S 24 kph)
- 10SM
06:53
Clear
70°F / 21°C 48°F / 9°C 46% 29.62 in
(1003 mb)
S 17.3 mph
(S 28 kph)
- 10SM
05:53
Clear
70°F / 21°C 48°F / 9°C 46% 29.65 in
(1004 mb)
SSE 15 mph
(SSE 24 kph)
- 10SM
04:53
Clear
70°F / 21°C 46°F / 8°C 43% 29.68 in
(1005 mb)
SSE 15 mph
(SSE 24 kph)
- 10SM
03:53
Clear
70°F / 21°C 45°F / 7°C 40% 29.68 in
(1005 mb)
S 15 mph
(S 24 kph)
- 10SM
02:53
Clear
72°F / 22°C 45°F / 7°C 38% 29.71 in
(1006 mb)
SSE 12.7 mph
(SSE 20 kph)
- 10SM
01:53
Clear
66°F / 19°C 45°F / 7°C 46% 29.71 in
(1006 mb)
SSE 11.5 mph
(SSE 19 kph)
- 10SM
00:53
Clear
68°F / 20°C 45°F / 7°C 43% 29.74 in
(1007 mb)
SSE 6.9 mph
(SSE 11 kph)
- 10SM
Time Weather Temperature Dewpoint Humidity Pressure Winds Precip Visibility


Weather for websites

WeatherForYou.com, LLC is not responsible for any damages or problems caused by this service. Current weather conditions are obtained from the closest station including government and personal stations which may have varying degrees of accuracy. Weather forecasts are derived from the NOAA NDFD. Like all things, this site belongs to Jesus Christ... He just trusts me to maintain it. If you have any questions or comments email webmaster@weatherforyou.com

Copyright © 2014, WeatherForYou.com LLC. All rights reserved.